| time (UTC) | temp F | wind direction | speed MPH | gust MPH | rain 1hr in | rain 24hr in | rain mn in | humidity % | barometer mb |
| 20260502170206 | 54 | 159 | 1.0 | 6.0 | 0.00 | 0.08 | 0.08 | 79 | 1010.6 |
| 20260502163205 | 52 | 125 | 0.0 | 2.0 | 0.00 | 0.08 | 0.08 | 84 | 1011.2 |
| 20260502162705 | 52 | 167 | 2.0 | 3.0 | 0.00 | 0.08 | 0.08 | 84 | 1011.3 |
| 20260502162205 | 51 | 153 | 1.0 | 3.0 | 0.00 | 0.08 | 0.08 | 84 | 1011.3 |
| 20260502161706 | 51 | 191 | 1.0 | 3.0 | 0.00 | 0.08 | 0.08 | 83 | 1011.2 |
| 20260502160705 | 51 | 187 | 0.0 | 1.0 | 0.00 | 0.08 | 0.08 | 84 | 1011.2 |
| 20260502160206 | 51 | 188 | 1.0 | 3.0 | 0.00 | 0.08 | 0.08 | 83 | 1011.2 |
| 20260502152205 | 50 | 24 | 1.0 | 2.0 | 0.00 | 0.08 | 0.08 | 87 | 1011.4 |
| 20260502151706 | 50 | 71 | 1.0 | 3.0 | 0.00 | 0.08 | 0.08 | 86 | 1011.3 |
| 20260502151205 | 50 | 70 | 1.0 | 3.0 | 0.00 | 0.08 | 0.08 | 88 | 1011.4 |
| 20260502150706 | 49 | 170 | 0.0 | 0.0 | 0.00 | 0.08 | 0.08 | 89 | 1011.3 |
| 20260502130706 | 46 | 329 | 0.0 | 2.0 | 0.03 | 0.08 | 0.08 | 94 | 1012.0 |
| 20260502123704 | 46 | 315 | 0.0 | 0.0 | 0.04 | 0.06 | 0.06 | 93 | 1012.4 |
| 20260502122705 | 46 | 315 | 0.0 | 0.0 | 0.04 | 0.05 | 0.05 | 94 | 1012.4 |
| 20260502120205 | 45 | 314 | 0.0 | 0.0 | 0.04 | 0.05 | 0.05 | 93 | 1012.4 |
| 20260502114705 | 45 | 314 | 0.0 | 1.0 | 0.02 | 0.03 | 0.03 | 91 | 1012.7 |
| 20260502113706 | 46 | 317 | 0.0 | 0.0 | 0.01 | 0.02 | 0.02 | 91 | 1012.6 |
| 20260502112705 | 46 | 317 | 0.0 | 1.0 | 0.00 | 0.01 | 0.01 | 92 | 1012.0 |
| 20260502112205 | 46 | 317 | 0.0 | 0.0 | 0.00 | 0.01 | 0.01 | 92 | 1011.8 |
| 20260502111705 | 46 | 317 | 0.0 | 1.0 | 0.00 | 0.01 | 0.01 | 92 | 1011.7 |
| 20260502105705 | 45 | 317 | 0.0 | 0.0 | 0.01 | 0.01 | 0.01 | 92 | 1011.2 |
| 20260502103205 | 45 | 317 | 0.0 | 0.0 | 0.01 | 0.01 | 0.01 | 90 | 1011.4 |
| 20260502091205 | 47 | 46 | 0.0 | 2.0 | 0.00 | 0.00 | 0.00 | 85 | 1010.9 |
| 20260502090205 | 47 | 46 | 0.0 | 1.0 | 0.00 | 0.00 | 0.00 | 83 | 1011.1 |
| 20260502070205 | 45 | 46 | 1.0 | 3.0 | 0.00 | 0.00 | 0.00 | 82 | 1011.4 |
| 20260502065205 | 45 | 262 | 0.0 | 1.0 | 0.00 | 0.00 | 0.00 | 82 | 1011.5 |
| 20260502064205 | 45 | 262 | 0.0 | 0.0 | 0.00 | 0.00 | 0.00 | 81 | 1011.3 |
| 20260502063704 | 45 | 262 | 0.0 | 2.0 | 0.00 | 0.00 | 0.00 | 82 | 1011.2 |
| 20260502062705 | 45 | 246 | 0.0 | 0.0 | 0.00 | 0.00 | 0.00 | 82 | 1011.2 |
| 20260502060705 | 45 | 246 | 0.0 | 0.0 | 0.00 | 0.00 | 0.00 | 82 | 1011.1 |
| 20260502060204 | 45 | 246 | 0.0 | 0.0 | 0.00 | 0.00 | 0.00 | 82 | 1011.2 |
| 20260502054704 | 45 | 246 | 0.0 | 0.0 | 0.00 | 0.00 | 0.00 | 80 | 1011.0 |
| 20260502052705 | 45 | 246 | 0.0 | 0.0 | 0.00 | 0.00 | 0.00 | 80 | 1011.1 |
| 20260502051705 | 45 | 246 | 0.0 | 0.0 | 0.00 | 0.00 | 0.00 | 79 | 1011.2 |
| 20260502051205 | 45 | 246 | 0.0 | 0.0 | 0.00 | 0.00 | 0.00 | 79 | 1011.2 |
| 20260502050205 | 45 | 246 | 0.0 | 0.0 | 0.00 | 0.00 | 0.00 | 80 | 1011.2 |
| 20260502045205 | 45 | 246 | 0.0 | 0.0 | 0.00 | 0.00 | 0.00 | 78 | 1011.4 |
| 20260502044705 | 45 | 246 | 0.0 | 0.0 | 0.00 | 0.00 | 0.00 | 77 | 1011.5 |
| 20260502044205 | 45 | 246 | 0.0 | 0.0 | 0.00 | 0.00 | 0.00 | 77 | 1011.5 |
| 20260502043205 | 45 | 246 | 0.0 | 0.0 | 0.00 | 0.00 | 0.00 | 78 | 1011.5 |
| 20260502042204 | 45 | 246 | 0.0 | 0.0 | 0.00 | 0.00 | 0.00 | 78 | 1011.4 |
| 20260502041705 | 45 | 246 | 0.0 | 0.0 | 0.00 | 0.00 | 0.00 | 78 | 1011.3 |
| 20260502041205 | 45 | 246 | 0.0 | 0.0 | 0.00 | 0.00 | 0.00 | 78 | 1011.3 |
| 20260502034705 | 45 | 246 | 0.0 | 0.0 | 0.00 | 0.00 | 0.00 | 78 | 1011.2 |
| 20260502034204 | 45 | 246 | 0.0 | 0.0 | 0.00 | 0.00 | 0.00 | 77 | 1011.2 |
| 20260502031205 | 45 | 246 | 0.0 | 0.0 | 0.00 | 0.01 | 0.00 | 76 | 1011.1 |
| 20260502030704 | 45 | 246 | 0.0 | 0.0 | 0.00 | 0.01 | 0.00 | 76 | 1011.0 |
| 20260502025204 | 45 | 246 | 0.0 | 0.0 | 0.00 | 0.01 | 0.00 | 76 | 1011.0 |
| 20260502024704 | 45 | 246 | 0.0 | 0.0 | 0.00 | 0.01 | 0.00 | 76 | 1011.0 |
| 20260502022704 | 45 | 246 | 0.0 | 0.0 | 0.00 | 0.02 | 0.00 | 70 | 1011.0 |
| 20260502022205 | 45 | 246 | 0.0 | 0.0 | 0.00 | 0.02 | 0.00 | 69 | 1011.0 |
| 20260502020705 | 46 | 246 | 0.0 | 0.0 | 0.00 | 0.02 | 0.00 | 68 | 1011.1 |
| 20260502020204 | 46 | 246 | 0.0 | 0.0 | 0.00 | 0.02 | 0.00 | 67 | 1011.1 |
| 20260502015205 | 47 | 246 | 0.0 | 0.0 | 0.00 | 0.02 | 0.00 | 66 | 1011.0 |
| 20260502014705 | 47 | 246 | 0.0 | 0.0 | 0.00 | 0.02 | 0.00 | 64 | 1011.0 |
| 20260502012705 | 48 | 246 | 0.0 | 0.0 | 0.00 | 0.02 | 0.00 | 62 | 1010.9 |
| 20260502012205 | 49 | 246 | 0.0 | 0.0 | 0.00 | 0.02 | 0.00 | 61 | 1010.9 |
| 20260502011705 | 49 | 246 | 0.0 | 0.0 | 0.00 | 0.02 | 0.00 | 59 | 1010.8 |
| 20260502011205 | 50 | 246 | 0.0 | 0.0 | 0.00 | 0.02 | 0.00 | 59 | 1010.8 |
| 20260502003204 | 53 | 246 | 0.0 | 0.0 | 0.00 | 0.02 | 0.00 | 53 | 1010.3 |
| 20260502001704 | 54 | 246 | 0.0 | 0.0 | 0.00 | 0.02 | 0.00 | 50 | 1010.1 |
| 20260502001205 | 55 | 246 | 0.0 | 0.0 | 0.00 | 0.02 | 0.00 | 50 | 1010.0 |
| 20260502000205 | 56 | 246 | 0.0 | 0.0 | 0.00 | 0.02 | 0.00 | 54 | 1009.9 |
| 20260501235705 | 56 | 246 | 0.0 | 0.0 | 0.00 | 0.02 | 0.00 | 53 | 1009.8 |
| 20260501235204 | 57 | 246 | 0.0 | 0.0 | 0.00 | 0.02 | 0.00 | 49 | 1009.7 |
| 20260501234704 | 57 | 246 | 0.0 | 0.0 | 0.00 | 0.02 | 0.00 | 54 | 1009.6 |
| 20260501234205 | 58 | 246 | 0.0 | 0.0 | 0.00 | 0.02 | 0.00 | 56 | 1009.5 |
| 20260501233205 | 58 | 246 | 0.0 | 0.0 | 0.00 | 0.02 | 0.00 | 46 | 1009.3 |
| 20260501232205 | 59 | 246 | 0.0 | 0.0 | 0.00 | 0.02 | 0.00 | 41 | 1009.2 |
| 20260501231705 | 59 | 246 | 0.0 | 1.0 | 0.00 | 0.02 | 0.00 | 41 | 1009.1 |
| 20260501231204 | 59 | 246 | 1.0 | 2.0 | 0.00 | 0.02 | 0.00 | 40 | 1009.1 |
| 20260501230204 | 59 | 240 | 0.0 | 3.0 | 0.00 | 0.02 | 0.00 | 37 | 1009.1 |
| 20260501224205 | 60 | 282 | 2.0 | 5.0 | 0.00 | 0.02 | 0.00 | 38 | 1008.9 |
| 20260501223704 | 60 | 306 | 0.0 | 3.0 | 0.00 | 0.02 | 0.00 | 38 | 1008.9 |
| 20260501222205 | 61 | 49 | 1.0 | 2.0 | 0.00 | 0.02 | 0.00 | 36 | 1008.8 |
| 20260501215205 | 62 | 15 | 2.0 | 9.0 | 0.00 | 0.02 | 0.00 | 35 | 1008.8 |
| 20260501214704 | 62 | 358 | 2.0 | 7.0 | 0.00 | 0.02 | 0.00 | 33 | 1008.8 |
| 20260501213704 | 62 | 256 | 3.0 | 6.0 | 0.00 | 0.02 | 0.00 | 34 | 1008.7 |
| 20260501212705 | 62 | 310 | 2.0 | 7.0 | 0.00 | 0.02 | 0.00 | 34 | 1008.7 |
| 20260501212205 | 62 | 289 | 2.0 | 7.0 | 0.00 | 0.02 | 0.00 | 38 | 1008.5 |
| 20260501211705 | 62 | 150 | 1.0 | 3.0 | 0.00 | 0.02 | 0.00 | 33 | 1008.3 |
| 20260501211204 | 62 | 291 | 0.0 | 3.0 | 0.00 | 0.02 | 0.00 | 37 | 1008.4 |
| 20260501210204 | 63 | 225 | 2.0 | 7.0 | 0.00 | 0.02 | 0.00 | 36 | 1008.2 |
| 20260501205704 | 63 | 254 | 2.0 | 3.0 | 0.00 | 0.02 | 0.00 | 35 | 1008.2 |
| 20260501205205 | 63 | 296 | 3.0 | 12.0 | 0.00 | 0.02 | 0.00 | 33 | 1008.2 |
| 20260501204704 | 63 | 228 | 5.0 | 13.0 | 0.00 | 0.02 | 0.00 | 33 | 1008.1 |
| 20260501203204 | 62 | 234 | 1.0 | 6.0 | 0.00 | 0.02 | 0.00 | 36 | 1008.2 |
| 20260501202204 | 62 | 260 | 0.0 | 3.0 | 0.00 | 0.02 | 0.00 | 38 | 1008.1 |
| 20260501200705 | 62 | 273 | 3.0 | 8.0 | 0.00 | 0.02 | 0.00 | 35 | 1008.1 |
| 20260501195704 | 62 | 43 | 2.0 | 7.0 | 0.00 | 0.02 | 0.00 | 35 | 1008.1 |
| 20260501194704 | 62 | 334 | 3.0 | 10.0 | 0.00 | 0.02 | 0.00 | 33 | 1008.2 |
| 20260501194205 | 62 | 325 | 2.0 | 7.0 | 0.00 | 0.02 | 0.00 | 35 | 1008.0 |
| 20260501193704 | 62 | 5 | 2.0 | 8.0 | 0.00 | 0.02 | 0.00 | 36 | 1008.2 |
| 20260501191704 | 61 | 226 | 3.0 | 10.0 | 0.00 | 0.02 | 0.00 | 36 | 1008.5 |
| 20260501185706 | 61 | 291 | 3.0 | 12.0 | 0.00 | 0.02 | 0.00 | 36 | 1008.6 |
| 20260501185205 | 61 | 283 | 4.0 | 10.0 | 0.00 | 0.02 | 0.00 | 38 | 1008.6 |
| 20260501184705 | 62 | 266 | 2.0 | 5.0 | 0.00 | 0.02 | 0.00 | 39 | 1008.6 |
| 20260501183704 | 62 | 326 | 4.0 | 12.0 | 0.00 | 0.02 | 0.00 | 38 | 1008.7 |
| 20260501182205 | 61 | 286 | 3.0 | 5.0 | 0.00 | 0.02 | 0.00 | 41 | 1008.6 |
| 20260501181204 | 61 | 254 | 2.0 | 7.0 | 0.00 | 0.02 | 0.00 | 43 | 1008.7 |
| 20260501180204 | 61 | 191 | 3.0 | 5.0 | 0.00 | 0.02 | 0.00 | 43 | 1008.7 |
| 20260501175704 | 60 | 292 | 3.0 | 8.0 | 0.00 | 0.02 | 0.00 | 44 | 1008.8 |
| 20260501175205 | 61 | 236 | 4.0 | 9.0 | 0.00 | 0.02 | 0.00 | 44 | 1008.7 |
| 20260501174204 | 60 | 71 | 1.0 | 7.0 | 0.00 | 0.02 | 0.00 | 45 | 1008.7 |
| 20260501173705 | 60 | 268 | 1.0 | 8.0 | 0.00 | 0.02 | 0.00 | 45 | 1008.7 |